Showing default

BANE, 58465

Orbit data source: Space-Track

BANE, 58465 is a payload satellite owned by York Space Sys (US) in SSO that was launched on Fri, 01 Dec 2023 UTC via an FALCON 9 launch vehicle from the Air Force Western Test Range (AFWTR). Payload-class satellites include a variety of spacecraft equipped with specific instruments for various scientific and technological missions. These include communications satellites like Starlink; space stations such as the ISS; scientific satellites like the Hubble; Earth observation satellites from companies like Planet Labs, Umbra, and HawkEye 360; GPS; miniature CubeSats for education and research; and military/defense satellites.

Loading next visibility...
Identifier
58465, 2023-185D
Orbit
SSO
Last TLE update
6 hours ago
Origin
Manufacturer
York Space Sys
Mission
Operational Commercial Technology
Bus & Motor
S-CLASS, Unknown motor
Mass
~150 kg wet, ~150 kg dry
Launch date (UTC)
2023-12-01 (2 years ago)
Launch vehicle
FALCON 9
Launch site
Air Force Western Test Range (AFWTR)
Object type
Payload
Rocket body
Debris
Shape & HBR
Box + 4 Pan, 2 m
Radar Cross Section
1.244 m², Medium (>0.1 m² and < 1m²)

Expand to show TLE details & history

TLE from 6 hours ago
0 BANE
1 58465U 23185D   25192.18494522  .00012512  00000-0  29598-3 0  9998
2 58465  97.3797 263.7005 0005326 355.7625   4.3576 15.41934732 89634
Epoch: 2025-07-11T04:26Z
TLE epoch observation values (Epoch: 2025-07-11T04:26:19.267Z)
Latitude
Longitude
-92.22029°
Altitude
439.899 km
Speed
7.65 km/s
True Right ascension
17h 34m 48s
True Declination
0° 00' 00"
Sunlit
Object was in full shadow at epoch
Visualization orbit readout
Latitude
-23.43551°
Longitude
84.81313°
Altitude
452.512 km
Speed
7.638 km/s
Apparent Right ascension
07h 29m 06s
Apparent Declination
-37° 00' 47"
Sunlit
Object is in daylight
Visualization observer readout
Local Sidereal Time
22:17:14
Azimuth
98.633° ESE
Elevation
-57.262°
Doppler factor
1
Orbital elements
Apogee altitude
440.965 km
Perigee altitude
433.705 km
Semi-major axis
6,815.472 km
Eccentricity
0.00053
Inclination
97.3797°
RAAN
263.7005°
Arg. of periapsis
355.7625°
True anomaly
Unknown
Mean anomaly
4.3576°
Eccentric anomaly
Unknown
Mean motion
3.85744 °/min
Orbital period
93.33 mins
BSTAR
0.00029598
Loading maneuver chart data...
Loading SW <> Apogee altitude chart data...
Loading historical data...
Loading historical data...
Loading historical data...
Loading historical data...
Loading historical data...
Loading historical data...
Loading historical data...

BANE Visibility forecast

Observer location: undefined°, undefined°

Span
Click to sort rows by Start time (UTC) header in descending order
Start Az.
Max El. time (UTC)
Max El. Az.
Max El.
End time (UTC)
End Az.
6 mins2025-07-11 17:27:26.657Z22.09° NNE2025-07-11 17:30:26.657Z117.088° SE39.663°2025-07-11 17:33:26.657Z180.177° SSW
|